Tracking 19146 objects as of 23-Apr-2018
HD Live streaming from Space Station
objects crossing your sky now

FENGYUN 1C DEB

Track FENGYUN 1C DEB now!
10-day predictions


NORAD ID: 30526
Int'l Code: 1999-025AJQ
Perigee: 857.9 km
Apogee: 1,331.1 km
Inclination: 99.4 °
Period: 107.0 minutes
Semi major axis: 7465 km
RCS: 0.0303 m2 (small)
Launch date: May 10, 1999
Source: People's Republic of China (PRC)
Launch site: Taiyaun Space Center, China (TSC)

Note: This is SATELLITE DEBRIS
aabbcc
Your satellite tracking list
Your tracking list is empty




NASA's NSSDC Master Catalog

Two Line Element Set (TLE):
1 30526U 99025AJQ 18112.90574997 +.00000104 +00000-0 +17955-3 0  9999
2 30526 099.4170 293.0292 0316930 012.6590 348.2273 13.45904958550827
Source of the keplerian elements: AFSPC